AFL1713 UHHH-UUEE

Flight info

Callsign AFL1713
Flight time 7h 11m
Altitude 34000
Route N0490F340 IVADA A333 NIKRA L168 LEBNA T541 KEDOR N174 MIGRI N155 GOBOM T187 ROMTA
Aircraft B77W/H-VGDW/C

Departure

Time 2026-05-04 06:14
Airport Khabarovsk Novy Airport (UHHH)

Arrival

Time 2026-05-04 13:25
Airport Sheremetyevo International Airport (UUEE)
Time Latitude Longitude Altitude Speed Heading
2026-05-04 05:47 48.52431 135.17089 239 ft 0 kts 312°
2026-05-04 05:52 48.52428 135.17094 239 ft 2 kts 312°
2026-05-04 05:53 48.52417 135.17112 239 ft 2 kts 314°
2026-05-04 05:54 48.52357 135.17154 239 ft 0 kts 41°
2026-05-04 06:01 48.52392 135.17201 239 ft 17 kts 41°
2026-05-04 06:03 48.52921 135.17799 239 ft 10 kts 111°
2026-05-04 06:03 48.52880 135.17886 239 ft 10 kts 129°
2026-05-04 06:05 48.52962 135.18956 239 ft 19 kts 75°
2026-05-04 06:05 48.53024 135.19345 239 ft 19 kts 72°
2026-05-04 06:05 48.53103 135.19503 241 ft 19 kts 43°
2026-05-04 06:06 48.53202 135.19639 241 ft 19 kts 42°
2026-05-04 06:06 48.53299 135.19773 241 ft 19 kts 43°
2026-05-04 06:06 48.53398 135.19906 240 ft 19 kts 41°
2026-05-04 06:06 48.53496 135.20039 239 ft 19 kts 43°
2026-05-04 06:07 48.53594 135.20174 239 ft 19 kts 41°
2026-05-04 06:07 48.53693 135.20309 240 ft 19 kts 43°
2026-05-04 06:07 48.53791 135.20443 241 ft 19 kts 42°
2026-05-04 06:07 48.53900 135.20590 241 ft 22 kts 43°
2026-05-04 06:08 48.54017 135.20749 240 ft 23 kts 34°
2026-05-04 06:08 48.54121 135.20812 239 ft 8 kts 64°
2026-05-04 06:08 48.54096 135.20847 239 ft 8 kts 187°
2026-05-04 06:08 48.54030 135.20766 239 ft 13 kts 221°
2026-05-04 06:09 48.54017 135.20749 240 ft 0 kts 221°
2026-05-04 06:13 48.53128 135.19533 242 ft 169 kts 222°
2026-05-04 06:14 48.46305 135.08362 4926 ft 270 kts 276°
2026-05-04 06:14 48.46930 135.05714 5670 ft 270 kts 302°
2026-05-04 06:15 48.47891 135.03290 6305 ft 276 kts 298°
2026-05-04 06:15 48.48921 135.00808 6996 ft 278 kts 314°
2026-05-04 06:15 48.50480 134.99127 7639 ft 280 kts 332°
2026-05-04 06:15 48.52222 134.97722 8344 ft 284 kts 332°
2026-05-04 06:16 48.53949 134.96312 9087 ft 286 kts 331°
2026-05-04 06:16 48.55696 134.94851 9822 ft 289 kts 330°
2026-05-04 06:16 48.57485 134.93321 10236 ft 306 kts 330°
2026-05-04 06:16 48.59410 134.91643 10418 ft 330 kts 330°
2026-05-04 06:17 48.61463 134.89827 10615 ft 354 kts 329°
2026-05-04 06:17 48.63641 134.87878 10990 ft 370 kts 329°
2026-05-04 06:17 48.65881 134.85858 11635 ft 379 kts 329°
2026-05-04 06:17 48.68161 134.83791 12410 ft 383 kts 329°
2026-05-04 06:18 48.70457 134.81704 13261 ft 386 kts 329°
2026-05-04 06:18 48.72755 134.79609 14065 ft 388 kts 329°
2026-05-04 06:18 48.75099 134.77468 14824 ft 392 kts 329°
2026-05-04 06:20 48.91904 134.62054 19708 ft 414 kts 329°
2026-05-04 06:20 48.94364 134.59787 20284 ft 418 kts 329°
2026-05-04 06:21 49.04522 134.50399 22476 ft 433 kts 328°
2026-05-04 06:21 49.07088 134.48021 23003 ft 437 kts 328°
2026-05-04 06:22 49.09689 134.45585 23506 ft 440 kts 327°
2026-05-04 06:22 49.12272 134.43023 24002 ft 443 kts 326°
2026-05-04 06:25 49.47066 134.07351 29002 ft 481 kts 326°
2026-05-04 06:25 49.49861 134.04477 29265 ft 483 kts 326°
2026-05-04 06:26 49.52661 134.01605 29565 ft 484 kts 326°
2026-05-04 06:26 49.55470 133.98726 30127 ft 480 kts 326°
2026-05-04 06:26 49.58209 133.95915 30533 ft 479 kts 326°
2026-05-04 06:26 49.60981 133.93065 30824 ft 480 kts 326°
2026-05-04 06:27 49.72174 133.81506 31782 ft 487 kts 326°
2026-05-04 06:28 49.75012 133.78564 32101 ft 486 kts 326°
2026-05-04 06:28 49.77804 133.75665 32435 ft 486 kts 326°
2026-05-04 06:28 49.80613 133.72745 32589 ft 489 kts 326°
2026-05-04 06:28 49.83423 133.69819 32909 ft 487 kts 326°
2026-05-04 06:29 49.86241 133.66881 33265 ft 485 kts 326°
2026-05-04 06:29 49.89039 133.63960 33469 ft 487 kts 326°
2026-05-04 06:29 49.94696 133.58041 33589 ft 494 kts 326°
2026-05-04 06:30 50.00396 133.52059 33599 ft 491 kts 326°
2026-05-04 06:30 50.05997 133.46165 33608 ft 486 kts 326°
2026-05-04 06:31 50.11598 133.40240 33608 ft 487 kts 326°
2026-05-04 06:31 50.17179 133.34255 33613 ft 488 kts 325°
2026-05-04 06:33 50.39645 133.09971 33608 ft 492 kts 325°
2026-05-04 06:34 50.45247 133.03877 33612 ft 491 kts 325°
2026-05-04 06:34 50.49935 132.98762 33607 ft 491 kts 325°
2026-05-04 06:36 50.72324 132.74161 33609 ft 490 kts 325°
2026-05-04 06:37 50.77906 132.67983 33611 ft 490 kts 325°
2026-05-04 06:37 50.83465 132.61810 33611 ft 490 kts 325°
2026-05-04 06:38 50.89038 132.55604 33609 ft 489 kts 324°
2026-05-04 06:40 51.11195 132.30744 33613 ft 487 kts 324°
2026-05-04 06:40 51.16723 132.24496 33609 ft 488 kts 324°
2026-05-04 06:41 51.22254 132.18105 33615 ft 489 kts 323°
2026-05-04 06:41 51.27628 132.11457 33560 ft 491 kts 322°
2026-05-04 06:42 51.33016 132.04726 33507 ft 492 kts 322°
2026-05-04 06:44 51.54629 131.77871 33499 ft 491 kts 322°
2026-05-04 06:44 51.60018 131.71128 33496 ft 491 kts 322°
2026-05-04 06:45 51.65425 131.64342 33501 ft 492 kts 322°
2026-05-04 06:45 51.70802 131.57572 33504 ft 493 kts 322°
2026-05-04 06:46 51.76235 131.50711 33503 ft 494 kts 322°
2026-05-04 06:46 51.81609 131.43904 33497 ft 493 kts 322°
2026-05-04 06:48 52.03062 131.16501 33498 ft 487 kts 321°
2026-05-04 06:50 52.24234 130.89115 33499 ft 487 kts 321°
2026-05-04 06:51 52.29529 130.82212 33501 ft 487 kts 321°
2026-05-04 06:51 52.34850 130.75251 33499 ft 488 kts 321°
2026-05-04 06:52 52.40142 130.68307 33500 ft 489 kts 321°
2026-05-04 06:52 52.45450 130.61320 33499 ft 489 kts 321°
2026-05-04 06:53 52.50755 130.54314 33499 ft 489 kts 321°
2026-05-04 06:53 52.56037 130.47316 33499 ft 488 kts 321°
2026-05-04 06:54 52.61296 130.40328 33498 ft 488 kts 321°
2026-05-04 06:54 52.66591 130.33268 33499 ft 488 kts 321°
2026-05-04 06:55 52.71864 130.26214 33499 ft 488 kts 321°
2026-05-04 06:55 52.77105 130.19182 33499 ft 488 kts 321°
2026-05-04 06:57 52.98125 129.90748 33501 ft 488 kts 320°
2026-05-04 06:58 53.03354 129.83619 33500 ft 488 kts 320°
2026-05-04 06:58 53.08596 129.76448 33499 ft 488 kts 320°
2026-05-04 06:59 53.13845 129.69245 33499 ft 488 kts 320°
2026-05-04 06:59 53.19104 129.62002 33499 ft 489 kts 320°
2026-05-04 07:01 53.39999 129.32991 33498 ft 489 kts 320°
2026-05-04 07:02 53.45233 129.25664 33500 ft 489 kts 320°
2026-05-04 07:02 53.50430 129.18365 33499 ft 489 kts 320°
2026-05-04 07:03 53.55636 129.11027 33499 ft 489 kts 320°
2026-05-04 07:03 53.60848 129.03650 33500 ft 489 kts 320°
2026-05-04 07:04 53.66056 128.96251 33498 ft 489 kts 320°
2026-05-04 07:04 53.71239 128.88864 33500 ft 489 kts 320°
2026-05-04 07:05 53.76418 128.81457 33498 ft 489 kts 320°
2026-05-04 07:05 53.81625 128.73987 33497 ft 489 kts 320°
2026-05-04 07:06 53.89398 128.62787 33495 ft 490 kts 319°
2026-05-04 07:07 53.94569 128.55304 33506 ft 491 kts 319°
2026-05-04 07:09 54.15340 128.25011 33497 ft 491 kts 319°
2026-05-04 07:09 54.20509 128.17420 33498 ft 490 kts 319°
2026-05-04 07:10 54.25677 128.09802 33498 ft 490 kts 319°
2026-05-04 07:12 54.46192 127.79297 33499 ft 489 kts 319°
2026-05-04 07:12 54.51307 127.71624 33503 ft 489 kts 319°
2026-05-04 07:13 54.56437 127.63903 33549 ft 488 kts 319°
2026-05-04 07:13 54.61543 127.56192 33603 ft 488 kts 319°
2026-05-04 07:14 54.74321 127.36775 33641 ft 492 kts 319°
2026-05-04 07:15 54.79468 127.28907 33638 ft 493 kts 318°
2026-05-04 07:15 54.84645 127.21113 33636 ft 493 kts 320°
2026-05-04 07:16 54.89907 127.13473 33638 ft 493 kts 320°
2026-05-04 07:16 54.95148 127.05847 33636 ft 493 kts 320°
2026-05-04 07:17 55.00370 126.98174 33636 ft 492 kts 320°
2026-05-04 07:17 55.05589 126.90458 33636 ft 491 kts 320°
2026-05-04 07:18 55.10797 126.82730 33637 ft 491 kts 320°
2026-05-04 07:18 55.16004 126.74980 33638 ft 491 kts 319°
2026-05-04 07:19 55.21198 126.67223 33638 ft 491 kts 319°
2026-05-04 07:19 55.26387 126.59444 33638 ft 491 kts 319°
2026-05-04 07:20 55.30707 126.52950 33638 ft 491 kts 319°
2026-05-04 07:20 55.35892 126.45126 33638 ft 492 kts 319°
2026-05-04 07:22 55.56646 126.13510 33637 ft 494 kts 319°
2026-05-04 07:23 55.61802 126.05584 33637 ft 495 kts 319°
2026-05-04 07:23 55.66991 125.97579 33641 ft 495 kts 319°
2026-05-04 07:24 55.72186 125.89534 33636 ft 495 kts 319°
2026-05-04 07:24 55.77370 125.81478 33639 ft 495 kts 319°
2026-05-04 07:26 55.98039 125.49056 33639 ft 495 kts 318°
2026-05-04 07:27 56.03207 125.40874 33640 ft 495 kts 318°
2026-05-04 07:27 56.08340 125.32720 33635 ft 495 kts 318°
2026-05-04 07:28 56.13477 125.24517 33639 ft 495 kts 318°
2026-05-04 07:28 56.18615 125.16281 33639 ft 495 kts 318°
2026-05-04 07:29 56.23736 125.08042 33638 ft 494 kts 318°
2026-05-04 07:29 56.28860 124.99768 33638 ft 494 kts 318°
2026-05-04 07:30 56.33934 124.91542 33635 ft 494 kts 318°
2026-05-04 07:30 56.39044 124.83232 33638 ft 494 kts 318°
2026-05-04 07:31 56.44146 124.74923 33636 ft 494 kts 318°
2026-05-04 07:33 56.64505 124.41466 33638 ft 494 kts 317°
2026-05-04 07:33 56.69564 124.33071 33637 ft 494 kts 317°
2026-05-04 07:34 56.74671 124.24564 33637 ft 494 kts 317°
2026-05-04 07:34 56.79717 124.16125 33632 ft 495 kts 317°
2026-05-04 07:35 56.84779 124.07628 33641 ft 495 kts 317°
2026-05-04 07:35 56.89852 123.99080 33643 ft 496 kts 317°
2026-05-04 07:36 56.94931 123.90489 33635 ft 496 kts 317°
2026-05-04 07:38 57.15044 123.56111 33633 ft 494 kts 317°
2026-05-04 07:38 57.20056 123.47450 33643 ft 493 kts 317°
2026-05-04 07:39 57.25057 123.38772 33636 ft 493 kts 316°
2026-05-04 07:39 57.30054 123.30065 33635 ft 493 kts 316°
2026-05-04 07:40 57.35018 123.21383 33637 ft 493 kts 316°
2026-05-04 07:40 57.40021 123.12596 33636 ft 493 kts 316°
2026-05-04 07:41 57.44936 123.03932 33642 ft 493 kts 316°
2026-05-04 07:41 57.49902 122.95142 33637 ft 494 kts 316°
2026-05-04 07:42 57.54902 122.86259 33639 ft 494 kts 316°
2026-05-04 07:42 57.59903 122.77337 33636 ft 494 kts 316°
2026-05-04 07:43 57.64831 122.68510 33640 ft 494 kts 316°
2026-05-04 07:43 57.69754 122.59657 33637 ft 494 kts 316°
2026-05-04 07:44 57.74739 122.50656 33637 ft 494 kts 316°
2026-05-04 07:44 57.79683 122.41695 33638 ft 494 kts 316°
2026-05-04 07:45 57.84590 122.32764 33637 ft 494 kts 316°
2026-05-04 07:45 57.89537 122.23724 33636 ft 494 kts 316°
2026-05-04 07:46 57.94455 122.14701 33639 ft 493 kts 315°
2026-05-04 07:46 57.99364 122.05658 33637 ft 493 kts 315°
2026-05-04 07:47 58.04210 121.96694 33638 ft 493 kts 315°
2026-05-04 07:49 58.23702 121.60273 33637 ft 491 kts 315°
2026-05-04 07:49 58.28549 121.51123 33633 ft 490 kts 315°
2026-05-04 07:50 58.33373 121.41979 33639 ft 490 kts 315°
2026-05-04 07:50 58.38157 121.32874 33632 ft 490 kts 315°
2026-05-04 07:51 58.42976 121.23668 33640 ft 490 kts 315°
2026-05-04 07:51 58.47760 121.14491 33638 ft 491 kts 315°
2026-05-04 07:52 58.52608 121.05150 33639 ft 491 kts 315°
2026-05-04 07:52 58.57418 120.95844 33638 ft 491 kts 314°
2026-05-04 07:54 58.74975 120.55743 33636 ft 490 kts 306°
2026-05-04 07:55 58.79020 120.45262 33636 ft 490 kts 307°
2026-05-04 07:55 58.83091 120.34741 33636 ft 489 kts 307°
2026-05-04 07:56 58.87156 120.24202 33639 ft 489 kts 307°
2026-05-04 07:56 58.91205 120.13648 33639 ft 488 kts 306°
2026-05-04 07:57 58.95241 120.03075 33638 ft 488 kts 306°
2026-05-04 07:57 58.99268 119.92479 33636 ft 488 kts 306°
2026-05-04 07:58 59.03289 119.81852 33640 ft 488 kts 306°
2026-05-04 07:58 59.07297 119.71213 33637 ft 488 kts 306°
2026-05-04 07:59 59.11304 119.60531 33638 ft 488 kts 306°
2026-05-04 07:59 59.15289 119.49837 33638 ft 489 kts 306°
2026-05-04 08:00 59.19269 119.39091 33641 ft 489 kts 306°
2026-05-04 08:02 59.35093 118.95895 33635 ft 489 kts 305°
2026-05-04 08:02 59.39038 118.85001 33613 ft 490 kts 305°
2026-05-04 08:03 59.42986 118.74051 33609 ft 490 kts 305°
2026-05-04 08:03 59.46909 118.63116 33609 ft 490 kts 305°
2026-05-04 08:04 59.50827 118.52148 33610 ft 490 kts 305°
2026-05-04 08:04 59.54707 118.41232 33611 ft 489 kts 305°
2026-05-04 08:05 59.58632 118.30141 33608 ft 489 kts 305°
2026-05-04 08:05 59.61863 118.20970 33609 ft 489 kts 304°
2026-05-04 08:06 59.65741 118.09915 33611 ft 489 kts 304°
2026-05-04 08:06 59.69609 117.98836 33606 ft 489 kts 304°
2026-05-04 08:08 59.84989 117.54259 33611 ft 489 kts 304°
2026-05-04 08:11 60.01947 117.03640 33613 ft 488 kts 303°
2026-05-04 08:11 60.07553 116.86613 33610 ft 488 kts 303°
2026-05-04 08:12 60.11274 116.75241 33609 ft 487 kts 303°
2026-05-04 08:12 60.14978 116.63865 33609 ft 487 kts 303°
2026-05-04 08:13 60.18655 116.52514 33608 ft 487 kts 303°
2026-05-04 08:13 60.22339 116.41089 33614 ft 487 kts 303°
2026-05-04 08:14 60.26015 116.29631 33612 ft 487 kts 303°
2026-05-04 08:16 60.40606 115.83535 33614 ft 488 kts 302°
2026-05-04 08:16 60.44225 115.71903 33609 ft 488 kts 302°
2026-05-04 08:17 60.47835 115.60247 33609 ft 488 kts 302°
2026-05-04 08:17 60.51431 115.48581 33608 ft 488 kts 302°
2026-05-04 08:19 60.65703 115.01695 33610 ft 487 kts 301°
2026-05-04 08:20 60.69242 114.89923 33608 ft 487 kts 301°
2026-05-04 08:20 60.72786 114.78147 33609 ft 486 kts 302°
2026-05-04 08:21 60.76556 114.66664 33610 ft 486 kts 304°
2026-05-04 08:21 60.80370 114.55351 33610 ft 486 kts 304°
2026-05-04 08:22 60.84170 114.43909 33609 ft 485 kts 304°
2026-05-04 08:24 60.99117 113.97775 33609 ft 485 kts 303°
2026-05-04 08:24 61.02810 113.86232 33611 ft 486 kts 303°
2026-05-04 08:25 61.06542 113.74511 33610 ft 486 kts 303°
2026-05-04 08:25 61.10206 113.62945 33610 ft 486 kts 303°
2026-05-04 08:27 61.24937 113.15845 33609 ft 485 kts 303°
2026-05-04 08:28 61.28578 113.04056 33609 ft 485 kts 302°
2026-05-04 08:28 61.32205 112.92248 33610 ft 484 kts 302°
2026-05-04 08:29 61.35822 112.80411 33609 ft 484 kts 302°
2026-05-04 08:31 61.50181 112.32817 33610 ft 484 kts 302°
2026-05-04 08:33 61.64377 111.84766 33609 ft 484 kts 301°
2026-05-04 08:35 61.78373 111.36392 33611 ft 484 kts 301°
2026-05-04 08:35 61.81853 111.24203 33609 ft 484 kts 301°
2026-05-04 08:37 61.93944 110.81343 33610 ft 484 kts 301°
2026-05-04 08:38 61.97353 110.69110 33610 ft 483 kts 300°
2026-05-04 08:38 62.00775 110.56764 33609 ft 483 kts 300°
2026-05-04 08:40 62.14268 110.07409 33611 ft 482 kts 300°
2026-05-04 08:41 62.17632 109.94936 33609 ft 482 kts 300°
2026-05-04 08:41 62.20959 109.82530 33610 ft 482 kts 300°
2026-05-04 08:42 62.24294 109.70022 33609 ft 482 kts 300°
2026-05-04 08:42 62.27612 109.57514 33649 ft 481 kts 300°
2026-05-04 08:43 62.30899 109.45047 33695 ft 481 kts 299°
2026-05-04 08:43 62.34185 109.32519 33747 ft 481 kts 299°
2026-05-04 08:44 62.37466 109.19937 33799 ft 481 kts 299°
2026-05-04 08:46 62.50489 108.69282 33827 ft 483 kts 298°
2026-05-04 08:46 62.53707 108.56586 33825 ft 482 kts 298°
2026-05-04 08:47 62.56918 108.43841 33829 ft 481 kts 298°
2026-05-04 08:47 62.60116 108.31077 33827 ft 480 kts 298°
2026-05-04 08:48 62.63282 108.18369 33838 ft 480 kts 298°
2026-05-04 08:48 62.66456 108.05552 33826 ft 480 kts 298°
2026-05-04 08:49 62.69608 107.92751 33829 ft 480 kts 298°
2026-05-04 08:50 62.80552 107.47708 33827 ft 480 kts 297°
2026-05-04 08:51 62.83643 107.34817 33828 ft 480 kts 297°
2026-05-04 08:51 62.86737 107.21838 33831 ft 480 kts 297°
2026-05-04 08:52 62.89815 107.08854 33832 ft 480 kts 297°
2026-05-04 08:52 62.92887 106.95858 33827 ft 480 kts 297°
2026-05-04 08:54 63.05360 106.44031 33827 ft 479 kts 297°
2026-05-04 08:55 63.08434 106.31039 33831 ft 479 kts 297°
2026-05-04 08:55 63.11505 106.17979 33830 ft 479 kts 297°
2026-05-04 09:01 63.42479 104.81678 33827 ft 478 kts 296°
2026-05-04 09:01 63.45416 104.68293 33835 ft 478 kts 296°
2026-05-04 09:02 63.48329 104.54928 33827 ft 477 kts 296°
2026-05-04 09:02 63.51226 104.41556 33827 ft 477 kts 296°
2026-05-04 09:03 63.54112 104.28151 33831 ft 477 kts 296°
2026-05-04 09:03 63.56965 104.14816 33827 ft 477 kts 295°
2026-05-04 09:04 63.59822 104.01384 33832 ft 477 kts 295°
2026-05-04 09:04 63.62665 103.87925 33833 ft 477 kts 295°
2026-05-04 09:05 63.65502 103.74406 33827 ft 477 kts 295°
2026-05-04 09:05 63.68322 103.60888 33827 ft 477 kts 295°
2026-05-04 09:06 63.71130 103.47335 33834 ft 477 kts 295°
2026-05-04 09:08 63.82241 102.92838 33833 ft 477 kts 294°
2026-05-04 09:08 63.84983 102.79162 33827 ft 477 kts 294°
2026-05-04 09:09 63.87707 102.65487 33834 ft 477 kts 294°
2026-05-04 09:09 63.90430 102.51723 33830 ft 477 kts 294°
2026-05-04 09:10 63.93133 102.37971 33830 ft 477 kts 294°
2026-05-04 09:10 63.95830 102.24154 33826 ft 477 kts 294°
2026-05-04 09:11 63.98511 102.10327 33827 ft 477 kts 294°
2026-05-04 09:11 64.01164 101.96549 33834 ft 477 kts 294°
2026-05-04 09:12 64.03819 101.82664 33829 ft 477 kts 293°
2026-05-04 09:14 64.14302 101.26892 33837 ft 476 kts 293°
2026-05-04 09:14 64.16873 101.12969 33824 ft 476 kts 293°
2026-05-04 09:15 64.19444 100.98950 33828 ft 476 kts 292°
2026-05-04 09:15 64.22000 100.84914 33831 ft 476 kts 292°
2026-05-04 09:17 64.31797 100.20474 33839 ft 476 kts 282°
2026-05-04 09:18 64.33217 100.05529 33827 ft 476 kts 282°
2026-05-04 09:18 64.34648 99.90631 33834 ft 476 kts 282°
2026-05-04 09:19 64.36089 99.75672 33828 ft 476 kts 282°
2026-05-04 09:19 64.37511 99.60795 33833 ft 477 kts 282°
2026-05-04 09:20 64.38923 99.45831 33829 ft 477 kts 282°
2026-05-04 09:20 64.40316 99.30880 33830 ft 477 kts 282°
2026-05-04 09:21 64.41697 99.15872 33826 ft 477 kts 282°
2026-05-04 09:21 64.43058 99.00898 33830 ft 477 kts 282°
2026-05-04 09:22 64.44412 98.85824 33832 ft 478 kts 282°
2026-05-04 09:22 64.45753 98.70704 33827 ft 478 kts 281°
2026-05-04 09:23 64.47079 98.55569 33832 ft 478 kts 281°
2026-05-04 09:23 64.48378 98.40545 33825 ft 477 kts 281°
2026-05-04 09:25 64.53435 97.80148 33822 ft 475 kts 281°
2026-05-04 09:26 64.54652 97.65114 33829 ft 476 kts 281°
2026-05-04 09:26 64.55861 97.49983 33835 ft 476 kts 280°
2026-05-04 09:27 64.57056 97.34818 33830 ft 476 kts 280°
2026-05-04 09:27 64.58230 97.19701 33825 ft 476 kts 280°
2026-05-04 09:28 64.59392 97.04534 33836 ft 476 kts 280°
2026-05-04 09:28 64.60541 96.89321 33833 ft 475 kts 280°
2026-05-04 09:29 64.61669 96.74165 33825 ft 475 kts 279°
2026-05-04 09:29 64.62776 96.59070 33851 ft 474 kts 279°
2026-05-04 09:30 64.63871 96.43925 33906 ft 473 kts 279°
2026-05-04 09:30 64.64949 96.28779 33956 ft 473 kts 279°
2026-05-04 09:31 64.66012 96.13606 34010 ft 473 kts 279°
2026-05-04 09:31 64.67059 95.98453 34023 ft 474 kts 279°
2026-05-04 09:32 64.68092 95.83239 34021 ft 474 kts 279°
2026-05-04 09:34 64.72073 95.22232 34021 ft 476 kts 278°
2026-05-04 09:34 64.73032 95.06910 34023 ft 476 kts 278°
2026-05-04 09:35 64.73969 94.91664 34030 ft 476 kts 278°
2026-05-04 09:35 64.74901 94.76237 34026 ft 476 kts 278°
2026-05-04 09:37 64.78441 94.15006 34021 ft 475 kts 277°
2026-05-04 09:38 64.79335 93.99629 33979 ft 475 kts 278°
2026-05-04 09:38 64.80270 93.84379 33923 ft 475 kts 278°
2026-05-04 09:39 64.81196 93.69063 33880 ft 474 kts 278°
2026-05-04 09:39 64.82100 93.53690 33838 ft 474 kts 278°
2026-05-04 09:40 64.82974 93.38458 33793 ft 473 kts 277°
2026-05-04 09:40 64.83839 93.23088 33748 ft 472 kts 277°
2026-05-04 09:42 64.87001 92.64259 33669 ft 472 kts 277°
2026-05-04 09:43 64.87791 92.48826 33668 ft 473 kts 277°
2026-05-04 09:43 64.88551 92.33655 33673 ft 474 kts 276°
2026-05-04 09:44 64.89307 92.18242 33664 ft 474 kts 276°
2026-05-04 09:46 64.92180 91.56343 34118 ft 475 kts 276°
2026-05-04 09:46 64.92516 91.48722 34503 ft 473 kts 276°
2026-05-04 09:46 64.92851 91.41021 34853 ft 471 kts 276°
2026-05-04 09:47 64.93181 91.33344 35110 ft 472 kts 276°
2026-05-04 09:47 64.93510 91.25590 35302 ft 473 kts 276°
2026-05-04 09:49 64.95689 90.71582 35691 ft 467 kts 275°
2026-05-04 09:49 64.95988 90.63767 35692 ft 466 kts 275°
2026-05-04 09:51 64.97931 90.10011 35686 ft 474 kts 275°
2026-05-04 09:51 64.98452 89.94592 35691 ft 473 kts 274°
2026-05-04 09:52 64.98961 89.79045 35689 ft 473 kts 274°
2026-05-04 09:52 64.99455 89.63490 35693 ft 472 kts 274°
2026-05-04 09:53 64.99927 89.48080 35691 ft 472 kts 274°
2026-05-04 09:53 65.00386 89.32576 35696 ft 472 kts 274°
2026-05-04 09:54 65.00825 89.17231 35691 ft 472 kts 274°
2026-05-04 09:54 65.01253 89.01680 35694 ft 472 kts 274°
2026-05-04 09:55 65.01663 88.86200 35692 ft 472 kts 273°
2026-05-04 09:55 65.02064 88.70461 35698 ft 472 kts 273°
2026-05-04 09:56 65.02442 88.54983 35692 ft 472 kts 273°
2026-05-04 09:56 65.02808 88.39447 35691 ft 472 kts 273°
2026-05-04 09:57 65.03176 88.24114 35692 ft 471 kts 273°
2026-05-04 09:57 65.03570 88.08790 35693 ft 471 kts 273°
2026-05-04 09:58 65.03945 87.93299 35693 ft 471 kts 273°
2026-05-04 09:58 65.04282 87.77760 35692 ft 470 kts 272°
2026-05-04 10:00 65.05452 87.15971 35693 ft 470 kts 272°
2026-05-04 10:04 65.06901 86.07679 35694 ft 471 kts 271°
2026-05-04 10:04 65.07045 85.92146 35692 ft 471 kts 271°
2026-05-04 10:05 65.07173 85.76580 35694 ft 472 kts 271°
2026-05-04 10:05 65.07284 85.61085 35692 ft 472 kts 271°
2026-05-04 10:06 65.07380 85.45474 35693 ft 472 kts 271°
2026-05-04 10:06 65.07460 85.29792 35692 ft 473 kts 270°
2026-05-04 10:08 65.07610 84.75316 35693 ft 473 kts 270°
2026-05-04 10:08 65.07617 84.59783 35692 ft 473 kts 270°
2026-05-04 10:09 65.07607 84.44213 35693 ft 472 kts 270°
2026-05-04 10:09 65.07582 84.28738 35692 ft 472 kts 270°
2026-05-04 10:10 65.07540 84.13029 35692 ft 472 kts 269°
2026-05-04 10:10 65.07483 83.97517 35692 ft 472 kts 269°
2026-05-04 10:11 65.07411 83.81934 35693 ft 472 kts 269°
2026-05-04 10:11 65.07316 83.66503 35691 ft 472 kts 269°
2026-05-04 10:12 65.07197 83.50844 35693 ft 471 kts 269°
2026-05-04 10:12 65.07066 83.35421 35692 ft 471 kts 269°
2026-05-04 10:13 65.06920 83.19923 35694 ft 471 kts 269°
2026-05-04 10:13 65.06758 83.04374 35693 ft 471 kts 268°
2026-05-04 10:14 65.06577 82.88581 35692 ft 471 kts 268°
2026-05-04 10:16 65.05705 82.26619 35692 ft 471 kts 268°
2026-05-04 10:16 65.05448 82.11177 35692 ft 471 kts 268°
2026-05-04 10:17 65.05174 81.95704 35692 ft 471 kts 267°
2026-05-04 10:19 65.03916 81.33703 35693 ft 472 kts 267°
2026-05-04 10:19 65.03561 81.18171 35703 ft 472 kts 266°
2026-05-04 10:20 65.03191 81.02720 35748 ft 472 kts 266°
2026-05-04 10:20 65.02801 80.87099 35792 ft 471 kts 266°
2026-05-04 10:21 65.02399 80.71670 35845 ft 471 kts 266°
2026-05-04 10:21 65.01983 80.56292 35895 ft 471 kts 266°
2026-05-04 10:22 65.01325 80.33098 35915 ft 472 kts 266°
2026-05-04 10:23 65.00864 80.17527 35913 ft 473 kts 266°
2026-05-04 10:25 64.98857 79.55377 35913 ft 475 kts 265°
2026-05-04 10:25 64.98312 79.39780 35912 ft 475 kts 265°
2026-05-04 10:26 64.97757 79.24349 35912 ft 475 kts 265°
2026-05-04 10:26 64.97170 79.08494 35912 ft 475 kts 265°
2026-05-04 10:27 64.96582 78.93059 35912 ft 474 kts 265°
2026-05-04 10:27 64.95972 78.77477 35912 ft 474 kts 264°
2026-05-04 10:28 64.95454 78.64573 35911 ft 473 kts 264°
2026-05-04 10:28 64.94714 78.46577 35913 ft 473 kts 264°
2026-05-04 10:29 64.94060 78.31126 35912 ft 473 kts 264°
2026-05-04 10:29 64.93392 78.15711 35912 ft 472 kts 264°
2026-05-04 10:30 64.92823 78.02870 35912 ft 472 kts 264°
2026-05-04 10:30 64.92130 77.87497 35912 ft 472 kts 264°
2026-05-04 10:31 64.91442 77.72167 35914 ft 472 kts 264°
2026-05-04 10:32 64.89335 77.17390 35878 ft 480 kts 264°
2026-05-04 10:33 64.88691 77.01801 35884 ft 476 kts 264°
2026-05-04 10:33 64.88046 76.86328 35884 ft 476 kts 264°
2026-05-04 10:34 64.87411 76.70860 35885 ft 476 kts 264°
2026-05-04 10:34 64.86758 76.55272 35886 ft 477 kts 264°
2026-05-04 10:35 64.86091 76.39801 35887 ft 478 kts 264°
2026-05-04 10:35 64.85400 76.24222 35886 ft 479 kts 264°
2026-05-04 10:36 64.84693 76.08646 35886 ft 479 kts 264°
2026-05-04 10:36 64.83967 75.93009 35879 ft 480 kts 264°
2026-05-04 10:37 64.83228 75.77457 35858 ft 480 kts 263°
2026-05-04 10:37 64.82473 75.61923 35851 ft 480 kts 263°
2026-05-04 10:39 64.79698 75.07530 35861 ft 479 kts 263°
2026-05-04 10:40 64.78871 74.92052 35854 ft 479 kts 263°
2026-05-04 10:40 64.78024 74.76513 35850 ft 478 kts 263°
2026-05-04 10:41 64.77167 74.61099 35859 ft 478 kts 262°
2026-05-04 10:41 64.76293 74.45680 35864 ft 478 kts 262°
2026-05-04 10:42 64.75398 74.30183 35863 ft 478 kts 262°
2026-05-04 10:42 64.74493 74.14796 35851 ft 479 kts 262°
2026-05-04 10:43 64.73568 73.99341 35860 ft 479 kts 262°
2026-05-04 10:45 64.69707 73.37670 35865 ft 479 kts 261°
2026-05-04 10:45 64.68708 73.22368 35849 ft 479 kts 261°
2026-05-04 10:46 64.67688 73.06999 35854 ft 479 kts 261°
2026-05-04 10:46 64.66650 72.91623 35858 ft 479 kts 261°
2026-05-04 10:47 64.65598 72.76267 35852 ft 479 kts 261°
2026-05-04 10:47 64.64527 72.60890 35857 ft 479 kts 261°
2026-05-04 10:49 64.60135 71.99750 35859 ft 479 kts 260°
2026-05-04 10:50 64.59021 71.84445 35857 ft 479 kts 260°
2026-05-04 10:52 64.54399 71.23397 35863 ft 479 kts 259°
2026-05-04 10:52 64.53204 71.08188 35860 ft 479 kts 259°
2026-05-04 10:54 64.48280 70.47574 35862 ft 478 kts 259°
2026-05-04 10:56 64.43104 69.87172 35841 ft 478 kts 258°
2026-05-04 10:57 64.41753 69.72148 35831 ft 478 kts 258°
2026-05-04 10:57 64.40377 69.57027 35831 ft 479 kts 258°
2026-05-04 10:58 64.39001 69.42056 35831 ft 478 kts 258°
2026-05-04 10:58 64.37600 69.26980 35829 ft 478 kts 258°
2026-05-04 10:59 64.36193 69.12007 35832 ft 478 kts 257°
2026-05-04 10:59 64.34767 68.97020 35829 ft 478 kts 257°
2026-05-04 11:00 64.33329 68.82085 35827 ft 478 kts 257°
2026-05-04 11:02 64.27416 68.22406 35825 ft 477 kts 257°
2026-05-04 11:05 64.15718 67.11561 35831 ft 477 kts 256°
2026-05-04 11:06 64.14088 66.96786 35830 ft 477 kts 256°
2026-05-04 11:06 64.12446 66.82046 35832 ft 477 kts 256°
2026-05-04 11:10 64.01003 65.79634 35831 ft 474 kts 255°
2026-05-04 11:12 63.94301 65.21538 35829 ft 475 kts 255°
2026-05-04 11:12 63.92596 65.06995 35831 ft 475 kts 255°
2026-05-04 11:13 63.91319 64.92234 35834 ft 475 kts 262°
2026-05-04 11:13 63.90371 64.77408 35825 ft 475 kts 262°
2026-05-04 11:14 63.89380 64.62575 35832 ft 475 kts 261°
2026-05-04 11:16 63.85407 64.05798 35832 ft 476 kts 261°
2026-05-04 11:16 63.84345 63.90964 35832 ft 476 kts 261°
2026-05-04 11:17 63.83271 63.76207 35831 ft 476 kts 261°
2026-05-04 11:19 63.78817 63.17223 35830 ft 476 kts 260°
2026-05-04 11:19 63.77659 63.02412 35832 ft 476 kts 260°
2026-05-04 11:20 63.76497 62.87764 35833 ft 476 kts 259°
2026-05-04 11:20 63.75311 62.73001 35829 ft 476 kts 259°
2026-05-04 11:22 63.70437 62.14349 35831 ft 476 kts 259°
2026-05-04 11:23 63.69182 61.99721 35829 ft 476 kts 259°
2026-05-04 11:25 63.64672 61.48618 35832 ft 475 kts 258°
2026-05-04 11:25 63.63347 61.34014 35832 ft 475 kts 258°
2026-05-04 11:27 63.57216 60.68607 35832 ft 476 kts 258°
2026-05-04 11:28 63.55818 60.54124 35826 ft 476 kts 258°
2026-05-04 11:28 63.54395 60.39611 35831 ft 476 kts 257°
2026-05-04 11:29 63.52954 60.25101 35833 ft 477 kts 257°
2026-05-04 11:29 63.51499 60.10596 35832 ft 476 kts 257°
2026-05-04 11:33 63.37159 59.12394 35807 ft 479 kts 249°
2026-05-04 11:33 63.34804 58.98546 35819 ft 479 kts 249°
2026-05-04 11:34 63.32426 58.84672 35836 ft 480 kts 249°
2026-05-04 11:34 63.30037 58.70831 35838 ft 480 kts 249°
2026-05-04 11:35 63.27626 58.56956 35830 ft 480 kts 249°
2026-05-04 11:35 63.25208 58.43159 35823 ft 479 kts 249°
2026-05-04 11:36 63.22784 58.29445 35822 ft 478 kts 248°
2026-05-04 11:36 63.20342 58.15707 35807 ft 478 kts 248°
2026-05-04 11:37 63.17892 58.02010 35802 ft 478 kts 248°
2026-05-04 11:37 63.15438 57.88388 35828 ft 476 kts 248°
2026-05-04 11:38 63.12968 57.74775 35837 ft 476 kts 248°
2026-05-04 11:38 63.10472 57.61111 35834 ft 476 kts 248°
2026-05-04 11:39 63.07981 57.47568 35812 ft 476 kts 248°
2026-05-04 11:41 62.99150 57.00299 35803 ft 476 kts 247°
2026-05-04 11:41 62.96616 56.86942 35805 ft 476 kts 247°
2026-05-04 11:42 62.94056 56.73535 35804 ft 476 kts 247°
2026-05-04 11:42 62.91483 56.60151 35802 ft 476 kts 247°
2026-05-04 11:43 62.88898 56.46795 35805 ft 476 kts 247°
2026-05-04 11:43 62.86299 56.33453 35802 ft 476 kts 247°
2026-05-04 11:44 62.83687 56.20134 35802 ft 476 kts 246°
2026-05-04 11:44 62.81062 56.06838 35799 ft 476 kts 246°
2026-05-04 11:45 62.78424 55.93561 35803 ft 476 kts 246°
2026-05-04 11:45 62.75771 55.80296 35800 ft 476 kts 246°
2026-05-04 11:46 62.73106 55.67057 35806 ft 477 kts 246°
2026-05-04 11:46 62.70429 55.53839 35802 ft 477 kts 246°
2026-05-04 11:47 62.67737 55.40626 35804 ft 477 kts 246°
2026-05-04 11:47 62.65035 55.27449 35803 ft 477 kts 246°
2026-05-04 11:48 62.62352 55.14351 35803 ft 477 kts 246°
2026-05-04 11:48 62.59649 55.01187 35803 ft 477 kts 246°
2026-05-04 11:49 62.56932 54.88045 35801 ft 477 kts 246°
2026-05-04 11:49 62.54201 54.74922 35803 ft 477 kts 245°
2026-05-04 11:50 62.51460 54.61840 35802 ft 477 kts 245°
2026-05-04 11:50 62.48710 54.48794 35803 ft 477 kts 245°
2026-05-04 11:51 62.45947 54.35770 35803 ft 476 kts 245°
2026-05-04 11:51 62.43173 54.22775 35804 ft 476 kts 245°
2026-05-04 11:52 62.40387 54.09798 35801 ft 476 kts 245°
2026-05-04 11:52 62.37612 53.96945 35802 ft 476 kts 245°
2026-05-04 11:53 62.34804 53.84020 35802 ft 476 kts 245°
2026-05-04 11:53 62.31988 53.71115 35801 ft 476 kts 245°
2026-05-04 11:55 62.20608 53.19728 35803 ft 476 kts 244°
2026-05-04 11:56 62.17732 53.06934 35802 ft 476 kts 244°
2026-05-04 11:56 62.14871 52.94277 35804 ft 476 kts 244°
2026-05-04 11:57 62.11972 52.81526 35803 ft 476 kts 244°
2026-05-04 11:57 62.09063 52.68810 35804 ft 476 kts 244°
2026-05-04 11:58 62.06146 52.56134 35802 ft 476 kts 244°
2026-05-04 11:58 62.03217 52.43477 35803 ft 476 kts 244°
2026-05-04 11:59 62.00275 52.30832 35799 ft 476 kts 243°
2026-05-04 11:59 61.97322 52.18217 35800 ft 476 kts 243°
2026-05-04 12:00 61.94344 52.05638 35803 ft 476 kts 243°
2026-05-04 12:00 61.91352 51.93083 35801 ft 476 kts 243°
2026-05-04 12:01 61.88357 51.80567 35803 ft 476 kts 243°
2026-05-04 12:02 61.78269 51.39051 35804 ft 476 kts 242°
2026-05-04 12:03 61.75230 51.26729 35804 ft 476 kts 242°
2026-05-04 12:03 61.72165 51.14356 35803 ft 476 kts 242°
2026-05-04 12:04 61.69094 51.02030 35803 ft 476 kts 242°
2026-05-04 12:04 61.66001 50.89671 35806 ft 476 kts 242°
2026-05-04 12:05 61.62844 50.77431 35799 ft 476 kts 240°
2026-05-04 12:05 61.59496 50.65422 35803 ft 476 kts 239°
2026-05-04 12:06 61.56131 50.53485 35803 ft 476 kts 239°
2026-05-04 12:06 61.52764 50.41479 35801 ft 476 kts 239°
2026-05-04 12:07 61.49410 50.29518 35803 ft 476 kts 239°
2026-05-04 12:07 61.46067 50.17656 35803 ft 476 kts 239°
2026-05-04 12:08 61.42738 50.05905 35803 ft 476 kts 239°
2026-05-04 12:08 61.39306 49.93862 35802 ft 476 kts 239°
2026-05-04 12:09 61.35908 49.82001 35806 ft 476 kts 239°
2026-05-04 12:09 61.32495 49.70141 35803 ft 476 kts 239°
2026-05-04 12:10 61.29073 49.58307 35800 ft 476 kts 239°
2026-05-04 12:10 61.25638 49.46525 35801 ft 476 kts 238°
2026-05-04 12:11 61.22189 49.34779 35804 ft 476 kts 238°
2026-05-04 12:11 61.18727 49.23040 35800 ft 476 kts 238°
2026-05-04 12:12 61.15269 49.11363 35804 ft 476 kts 238°
2026-05-04 12:12 61.11788 48.99669 35801 ft 477 kts 238°
2026-05-04 12:14 60.97781 48.53198 35801 ft 478 kts 238°
2026-05-04 12:15 60.94227 48.41623 35802 ft 478 kts 238°
2026-05-04 12:15 60.90671 48.30089 35804 ft 478 kts 237°
2026-05-04 12:16 60.87108 48.18539 35803 ft 478 kts 238°
2026-05-04 12:16 60.83546 48.07015 35802 ft 478 kts 237°
2026-05-04 12:17 60.79982 47.95538 35803 ft 478 kts 237°
2026-05-04 12:17 60.76404 47.84081 35800 ft 478 kts 237°
2026-05-04 12:18 60.72818 47.72656 35804 ft 477 kts 237°
2026-05-04 12:18 60.69222 47.61255 35803 ft 477 kts 237°
2026-05-04 12:19 60.65619 47.49889 35803 ft 477 kts 237°
2026-05-04 12:19 60.62008 47.38551 35804 ft 477 kts 237°
2026-05-04 12:20 60.58380 47.27216 35804 ft 477 kts 237°
2026-05-04 12:20 60.54776 47.16013 35803 ft 477 kts 237°
2026-05-04 12:21 60.51134 47.04744 35805 ft 477 kts 237°
2026-05-04 12:21 60.47489 46.93519 35802 ft 477 kts 236°
2026-05-04 12:22 60.43826 46.82289 35804 ft 477 kts 236°
2026-05-04 12:22 60.40217 46.71273 35804 ft 477 kts 236°
2026-05-04 12:23 60.36519 46.60073 35806 ft 477 kts 236°
2026-05-04 12:23 60.32824 46.48949 35801 ft 477 kts 236°
2026-05-04 12:24 60.29110 46.37806 35804 ft 478 kts 236°
2026-05-04 12:24 60.25421 46.26788 35800 ft 478 kts 236°
2026-05-04 12:25 60.21706 46.15742 35804 ft 478 kts 236°
2026-05-04 12:25 60.17922 46.04540 35803 ft 478 kts 236°
2026-05-04 12:26 60.14206 45.93580 35800 ft 478 kts 236°
2026-05-04 12:26 60.10855 45.82082 35810 ft 477 kts 241°
2026-05-04 12:27 60.07639 45.70436 35803 ft 478 kts 241°
2026-05-04 12:27 60.04398 45.58812 35802 ft 478 kts 240°
2026-05-04 12:28 60.01136 45.47247 35801 ft 478 kts 240°
2026-05-04 12:28 59.97858 45.35704 35803 ft 478 kts 240°
2026-05-04 12:29 59.94569 45.24178 35805 ft 478 kts 240°
2026-05-04 12:29 59.91268 45.12667 35803 ft 478 kts 240°
2026-05-04 12:30 59.87962 45.01191 35800 ft 478 kts 240°
2026-05-04 12:30 59.84646 44.89738 35802 ft 478 kts 240°
2026-05-04 12:31 59.81321 44.78304 35800 ft 478 kts 240°
2026-05-04 12:31 59.77979 44.66875 35803 ft 478 kts 240°
2026-05-04 12:32 59.72976 44.49830 35804 ft 479 kts 239°
2026-05-04 12:33 59.69660 44.38599 35843 ft 478 kts 239°
2026-05-04 12:33 59.66295 44.27236 35860 ft 479 kts 239°
2026-05-04 12:34 59.62930 44.15907 35856 ft 479 kts 239°
2026-05-04 12:34 59.59567 44.04650 35859 ft 479 kts 239°
2026-05-04 12:35 59.56147 43.93286 35857 ft 480 kts 239°
2026-05-04 12:35 59.52687 43.81839 35858 ft 480 kts 239°
2026-05-04 12:36 59.49266 43.70566 35869 ft 479 kts 239°
2026-05-04 12:36 59.45831 43.59300 35857 ft 479 kts 239°
2026-05-04 12:37 59.42392 43.48077 35858 ft 479 kts 239°
2026-05-04 12:37 59.38943 43.36874 35864 ft 480 kts 239°
2026-05-04 12:38 59.35504 43.25757 35858 ft 480 kts 239°
2026-05-04 12:38 59.32033 43.14591 35856 ft 480 kts 238°
2026-05-04 12:39 59.28557 43.03463 35853 ft 480 kts 238°
2026-05-04 12:39 59.25058 42.92313 35854 ft 480 kts 238°
2026-05-04 12:40 59.21597 42.81337 35853 ft 480 kts 238°
2026-05-04 12:40 59.18090 42.70269 35859 ft 480 kts 238°
2026-05-04 12:41 59.14519 42.59051 35859 ft 480 kts 238°
2026-05-04 12:41 59.10987 42.48008 35856 ft 480 kts 238°
2026-05-04 12:42 59.07448 42.36996 35853 ft 480 kts 238°
2026-05-04 12:42 59.03901 42.26010 35855 ft 480 kts 238°
2026-05-04 12:43 59.00401 42.15217 35839 ft 480 kts 238°
2026-05-04 12:43 58.96808 42.04193 35834 ft 480 kts 238°
2026-05-04 12:44 58.93223 41.93243 35827 ft 480 kts 237°
2026-05-04 12:44 58.89640 41.82348 35834 ft 480 kts 237°
2026-05-04 12:45 58.86047 41.71471 35832 ft 480 kts 237°
2026-05-04 12:45 58.82443 41.60610 35825 ft 480 kts 237°
2026-05-04 12:46 58.78833 41.49777 35827 ft 480 kts 237°
2026-05-04 12:46 58.75507 41.38608 35832 ft 480 kts 245°
2026-05-04 12:47 58.72738 41.26968 35834 ft 480 kts 245°
2026-05-04 12:47 58.69995 41.15417 35828 ft 481 kts 245°
2026-05-04 12:48 58.67199 41.03836 35833 ft 481 kts 245°
2026-05-04 12:48 58.64320 40.92050 35828 ft 481 kts 245°
2026-05-04 12:49 58.61465 40.80431 35833 ft 481 kts 245°
2026-05-04 12:49 58.58600 40.68828 35833 ft 481 kts 244°
2026-05-04 12:50 58.55725 40.57245 35830 ft 481 kts 244°
2026-05-04 12:50 58.53325 40.47619 35828 ft 481 kts 244°
2026-05-04 12:51 58.50435 40.36083 35826 ft 481 kts 244°
2026-05-04 12:51 58.47527 40.24535 35827 ft 482 kts 244°
2026-05-04 12:52 58.44611 40.13018 35834 ft 482 kts 244°
2026-05-04 12:52 58.41684 40.01513 35832 ft 482 kts 244°
2026-05-04 12:53 58.38747 39.90023 35833 ft 482 kts 244°
2026-05-04 12:53 58.35791 39.78633 35831 ft 482 kts 241°
2026-05-04 12:54 58.31930 39.68243 35838 ft 482 kts 229°
2026-05-04 12:54 58.27097 39.59424 35834 ft 481 kts 221°
2026-05-04 12:55 58.22056 39.51068 35832 ft 482 kts 221°
2026-05-04 12:55 58.17017 39.42688 35830 ft 482 kts 221°
2026-05-04 12:56 58.12022 39.34329 35825 ft 482 kts 221°
2026-05-04 12:56 58.06967 39.25875 35828 ft 482 kts 221°
2026-05-04 12:57 58.01966 39.17545 35830 ft 482 kts 221°
2026-05-04 12:57 57.96935 39.09202 35834 ft 482 kts 221°
2026-05-04 12:58 57.91884 39.00859 35825 ft 482 kts 221°
2026-05-04 12:58 57.89344 38.96677 35143 ft 491 kts 221°
2026-05-04 12:58 57.86764 38.92435 34394 ft 492 kts 221°
2026-05-04 12:58 57.84190 38.88214 33551 ft 493 kts 221°
2026-05-04 12:59 57.81693 38.84125 32753 ft 498 kts 221°
2026-05-04 12:59 57.79076 38.79850 32075 ft 498 kts 221°
2026-05-04 12:59 57.76385 38.75461 31594 ft 488 kts 221°
2026-05-04 12:59 57.73834 38.71309 31114 ft 483 kts 221°
2026-05-04 13:00 57.71349 38.67272 30836 ft 476 kts 221°
2026-05-04 13:00 57.68867 38.63246 30614 ft 468 kts 221°
2026-05-04 13:00 57.66424 38.59291 30349 ft 463 kts 221°
2026-05-04 13:00 57.63998 38.55369 29962 ft 460 kts 221°
2026-05-04 13:01 57.61576 38.51465 29539 ft 459 kts 221°
2026-05-04 13:01 57.59165 38.47586 29154 ft 457 kts 220°
2026-05-04 13:01 57.56761 38.43729 28774 ft 454 kts 220°
2026-05-04 13:01 57.54375 38.39907 28435 ft 451 kts 220°
2026-05-04 13:02 57.51999 38.36105 28076 ft 449 kts 220°
2026-05-04 13:02 57.49640 38.32337 27709 ft 446 kts 220°
2026-05-04 13:02 57.47290 38.28589 27353 ft 444 kts 220°
2026-05-04 13:02 57.44949 38.24861 27005 ft 442 kts 220°
2026-05-04 13:03 57.42632 38.21177 26656 ft 439 kts 220°
2026-05-04 13:03 57.40308 38.17489 26310 ft 437 kts 220°
2026-05-04 13:03 57.38061 38.13930 25985 ft 435 kts 220°
2026-05-04 13:03 57.35803 38.10359 25652 ft 433 kts 220°
2026-05-04 13:04 57.33421 38.06598 25306 ft 431 kts 220°
2026-05-04 13:04 57.31204 38.03104 24960 ft 429 kts 220°
2026-05-04 13:04 57.28881 37.99448 24619 ft 427 kts 220°
2026-05-04 13:04 57.26658 37.95956 24307 ft 425 kts 220°
2026-05-04 13:05 57.24426 37.92454 23996 ft 423 kts 220°
2026-05-04 13:05 57.22160 37.88907 23675 ft 421 kts 220°
2026-05-04 13:05 57.19931 37.85421 23310 ft 419 kts 220°
2026-05-04 13:05 57.17730 37.81984 22676 ft 405 kts 220°
2026-05-04 13:06 57.15640 37.78726 22038 ft 384 kts 220°
2026-05-04 13:06 57.13646 37.75622 21412 ft 367 kts 220°
2026-05-04 13:06 57.11737 37.72658 20779 ft 353 kts 220°
2026-05-04 13:06 57.09735 37.70145 20110 ft 344 kts 205°
2026-05-04 13:07 57.07567 37.68472 19522 ft 333 kts 201°
2026-05-04 13:07 57.05431 37.66963 18880 ft 324 kts 201°
2026-05-04 13:07 57.03354 37.65503 18245 ft 316 kts 201°
2026-05-04 13:07 57.01315 37.64052 17631 ft 314 kts 201°
2026-05-04 13:08 56.99276 37.62581 17025 ft 315 kts 201°
2026-05-04 13:08 56.97238 37.61096 16409 ft 315 kts 201°
2026-05-04 13:08 56.95203 37.59605 15791 ft 315 kts 202°
2026-05-04 13:08 56.93175 37.58115 15167 ft 312 kts 202°
2026-05-04 13:09 56.91165 37.56636 14549 ft 310 kts 202°
2026-05-04 13:09 56.89180 37.55174 13973 ft 305 kts 202°
2026-05-04 13:09 56.87259 37.53760 13482 ft 299 kts 202°
2026-05-04 13:09 56.85318 37.52332 12969 ft 294 kts 202°
2026-05-04 13:10 56.83457 37.50964 12472 ft 290 kts 202°
2026-05-04 13:10 56.81590 37.49594 12030 ft 288 kts 202°
2026-05-04 13:10 56.79722 37.48224 11674 ft 290 kts 202°
2026-05-04 13:10 56.77844 37.46848 11313 ft 292 kts 202°
2026-05-04 13:11 56.75949 37.45461 10948 ft 294 kts 202°
2026-05-04 13:11 56.74058 37.44077 10639 ft 292 kts 202°
2026-05-04 13:11 56.72229 37.42741 10624 ft 288 kts 202°
2026-05-04 13:11 56.70311 37.41342 10635 ft 298 kts 202°
2026-05-04 13:12 56.68386 37.39940 10620 ft 291 kts 202°
2026-05-04 13:12 56.66528 37.38584 10606 ft 284 kts 202°
2026-05-04 13:12 56.64710 37.37214 10512 ft 285 kts 202°
2026-05-04 13:12 56.62867 37.35811 10293 ft 286 kts 202°
2026-05-04 13:13 56.61042 37.34422 10080 ft 283 kts 202°
2026-05-04 13:13 56.59237 37.33052 9813 ft 279 kts 202°
2026-05-04 13:13 56.57451 37.31701 9551 ft 276 kts 202°
2026-05-04 13:13 56.55689 37.30371 9288 ft 273 kts 202°
2026-05-04 13:14 56.53949 37.29059 9037 ft 270 kts 202°
2026-05-04 13:14 56.52216 37.27810 8819 ft 265 kts 201°
2026-05-04 13:14 56.50502 37.26628 8630 ft 262 kts 201°
2026-05-04 13:14 56.48802 37.25458 8433 ft 261 kts 201°
2026-05-04 13:15 56.47114 37.24295 8251 ft 265 kts 201°
2026-05-04 13:15 56.45379 37.23098 8061 ft 269 kts 201°
2026-05-04 13:15 56.43608 37.22122 7822 ft 266 kts 184°
2026-05-04 13:15 56.41797 37.22507 7659 ft 262 kts 166°
2026-05-04 13:16 56.39997 37.23262 7463 ft 266 kts 167°
2026-05-04 13:16 56.38254 37.23973 7274 ft 269 kts 167°
2026-05-04 13:16 56.36419 37.24716 7069 ft 271 kts 167°
2026-05-04 13:16 56.34583 37.25456 6863 ft 271 kts 167°
2026-05-04 13:17 56.32701 37.26213 6650 ft 268 kts 167°
2026-05-04 13:17 56.30922 37.26925 6434 ft 264 kts 167°
2026-05-04 13:17 56.29080 37.27659 6246 ft 261 kts 167°
2026-05-04 13:17 56.27307 37.28364 6052 ft 260 kts 167°
2026-05-04 13:18 56.25541 37.29067 5867 ft 260 kts 167°
2026-05-04 13:18 56.23793 37.29856 5663 ft 259 kts 164°
2026-05-04 13:18 56.22052 37.30738 5477 ft 261 kts 164°
2026-05-04 13:18 56.20288 37.31631 5290 ft 265 kts 164°
2026-05-04 13:19 56.18511 37.32521 5093 ft 266 kts 164°
2026-05-04 13:19 56.16800 37.33391 4887 ft 265 kts 160°
2026-05-04 13:19 56.15246 37.35163 4663 ft 257 kts 133°
2026-05-04 13:19 56.14041 37.37593 4512 ft 259 kts 131°
2026-05-04 13:20 56.12842 37.39983 4317 ft 263 kts 132°
2026-05-04 13:20 56.11612 37.42425 4133 ft 263 kts 132°
2026-05-04 13:20 56.10386 37.44854 3919 ft 263 kts 132°
2026-05-04 13:20 56.09169 37.47264 3740 ft 258 kts 132°
2026-05-04 13:21 56.07974 37.49624 3525 ft 253 kts 132°
2026-05-04 13:21 56.06813 37.51918 3398 ft 244 kts 133°
2026-05-04 13:21 56.05681 37.54159 3186 ft 240 kts 134°
2026-05-04 13:21 56.04572 37.56335 3027 ft 233 kts 135°
2026-05-04 13:22 56.03493 37.58414 2795 ft 219 kts 140°
2026-05-04 13:22 56.02241 37.59564 2612 ft 189 kts 179°
2026-05-04 13:22 56.01120 37.59063 2519 ft 156 kts 223°
2026-05-04 13:22 56.00345 37.57696 2416 ft 156 kts 232°
2026-05-04 13:23 55.99689 37.56214 2322 ft 148 kts 237°
2026-05-04 13:23 55.99235 37.54578 1964 ft 148 kts 250°
2026-05-04 13:23 55.98865 37.52822 1651 ft 152 kts 251°
2026-05-04 13:23 55.98564 37.51052 1288 ft 146 kts 254°
2026-05-04 13:24 55.98314 37.49379 1169 ft 134 kts 255°
2026-05-04 13:24 55.98073 37.47760 1042 ft 140 kts 256°
2026-05-04 13:24 55.97822 37.46075 856 ft 141 kts 255°
2026-05-04 13:25 55.97331 37.42776 646 ft 123 kts 255°
2026-05-04 13:25 55.97175 37.41691 650 ft 57 kts 255°
2026-05-04 13:25 55.97154 37.41388 645 ft 9 kts 308°
2026-05-04 13:25 55.97206 37.41333 644 ft 9 kts 338°
2026-05-04 13:26 55.97238 37.41315 644 ft 0 kts 343°
2026-05-04 13:27 55.97239 37.41315 644 ft 1 kts 343°
2026-05-04 13:27 55.97269 37.41296 644 ft 7 kts 341°
2026-05-04 13:27 55.97348 37.41256 645 ft 22 kts 345°
2026-05-04 13:28 55.97464 37.41202 647 ft 10 kts 345°
2026-05-04 13:28 55.97561 37.41297 644 ft 20 kts 72°
2026-05-04 13:28 55.97591 37.41548 646 ft 21 kts 76°
2026-05-04 13:28 55.97627 37.41794 644 ft 17 kts 75°
2026-05-04 13:29 55.97643 37.41904 644 ft 3 kts 77°
2026-05-04 13:32 55.97646 37.41922 650 ft 10 kts 77°
2026-05-04 13:32 55.97669 37.42075 645 ft 13 kts 74°
2026-05-04 13:32 55.97693 37.42233 644 ft 13 kts 75°
2026-05-04 13:33 55.97738 37.42367 650 ft 13 kts 19°
2026-05-04 13:33 55.97829 37.42348 644 ft 13 kts 343°
2026-05-04 13:33 55.97918 37.42296 644 ft 13 kts 328°
2026-05-04 13:33 55.97943 37.42145 644 ft 13 kts 263°
2026-05-04 13:34 55.97967 37.42023 645 ft 6 kts 327°
2026-05-04 13:34 55.98007 37.41986 649 ft 6 kts 323°
2026-05-04 13:34 55.98022 37.41907 644 ft 7 kts 268°
2026-05-04 13:34 55.98021 37.41890 644 ft 1 kts 264°
2026-05-04 13:35 55.98019 37.41850 644 ft 4 kts 258°
2026-05-04 13:35 55.98018 37.41844 644 ft 0 kts 258°